AG5GL Weather Reports


Display with metric or nautical units.
time (UTC)temp
F
wind
direction
speed
MPH
gust
MPH
rain 1hr
in
rain 24hr
in
rain mn
in
humidity
%
barometer
mb
20260505094104 0 132 0.0 0.0 0.00 0.00 0.00 1018.9
20260505093104 0 33 0.0 0.0 0.00 0.00 0.00 1018.8
20260505092100 0 42 0.0 0.0 0.00 0.00 0.00 1018.7
20260505091054 0 119 0.0 0.0 0.00 0.00 0.00 1018.7
20260505090049 0 73 0.0 0.0 0.00 0.00 0.00 1018.5
20260505085045 0 72 0.0 0.0 0.00 0.00 0.00 1018.6
20260505084041 0 47 0.0 0.0 0.00 0.00 0.00 1018.6
20260505083040 0 69 0.0 0.0 0.00 0.00 0.00 1018.5
20260505082039 0 44 0.0 0.0 0.00 0.00 0.00 1018.6
20260505081038 0 75 0.0 0.0 0.00 0.00 0.00 1018.6
20260505080037 0 81 0.0 0.0 0.00 0.00 0.00 1018.8
20260505075036 0 187 0.0 0.0 0.00 0.00 0.00 1018.8
20260505074036 0 63 0.0 0.0 0.00 0.00 0.00 1018.5
20260505073032 0 51 0.0 0.0 0.00 0.00 0.00 1018.6
20260505072029 0 67 0.0 0.0 0.00 0.00 0.00 1018.7
20260505071029 0 69 0.0 0.0 0.00 0.00 0.00 1018.7
20260505070027 0 91 0.0 0.0 0.00 0.00 0.00 1018.8
20260505065025 0 66 0.0 0.0 0.00 0.00 0.00 1018.7
20260505064021 0 63 0.0 0.0 0.00 0.00 0.00 1018.8
20260505063019 0 55 0.0 0.0 0.00 0.00 0.00 1019.0
20260505062020 0 41 0.0 0.0 0.00 0.00 0.00 1019.0
20260505061015 0 224 0.0 0.0 0.00 0.00 0.00 1018.9
20260505060014 0 67 0.0 0.0 0.00 0.00 0.00 1019.0
20260505055012 0 96 0.0 0.0 0.00 0.00 0.00 1019.1
20260505054008 0 101 0.0 0.0 0.00 0.00 0.00 1019.0
20260505053007 0 86 0.0 0.0 0.00 0.00 0.00 1019.3
20260505052007 0 103 0.0 0.0 0.00 0.00 0.00 1019.4
20260505051002 0 105 0.0 0.0 0.00 0.00 0.00 1019.4
20260505041000 0 93 0.0 0.0 0.00 0.00 0.00 1020.1
20260505040000 0 90 0.0 0.0 0.00 0.00 0.00 1020.0
20260505034959 0 86 0.0 0.0 0.00 0.00 0.00 1019.9
20260505033958 0 84 0.0 0.0 0.00 0.00 0.00 1020.1
20260505032953 0 79 0.0 0.0 0.00 0.00 0.00 1020.0
20260505031952 0 76 0.0 0.0 0.00 0.00 0.00 1020.2
20260505030952 0 75 0.0 0.0 0.00 0.00 0.00 1020.3
20260505025949 0 74 0.0 0.0 0.00 0.00 0.00 1020.3
20260505024945 0 74 0.0 0.0 0.00 0.00 0.00 1020.4
20260505023945 0 74 0.0 0.0 0.00 0.00 0.00 1020.5
20260505022946 0 74 0.0 0.0 0.00 0.00 0.00 1020.1
20260505021940 0 73 0.0 0.0 0.00 0.00 0.00 1019.9
20260505020938 0 74 0.0 0.0 0.00 0.00 0.00 1020.0
20260505015936 0 72 0.0 0.0 0.00 0.00 0.00 1019.9
20260505014931 0 72 0.0 0.0 0.00 0.00 0.00 1019.8
20260505013930 0 73 0.0 0.0 0.00 0.00 0.00 1019.6
20260505012925 0 72 0.0 0.0 0.00 0.00 0.00 1019.8
20260505011925 0 72 0.0 0.0 0.00 0.00 0.00 1019.6
20260505010924 0 72 0.0 0.0 0.00 0.00 0.00 1019.5
20260505005922 0 72 0.0 0.0 0.00 0.00 0.00 1019.5
20260505004922 0 72 0.0 0.0 0.00 0.00 0.00 1019.4
20260505003921 0 74 0.0 0.0 0.00 0.00 0.00 1019.3
20260505002920 0 72 0.0 0.0 0.00 0.00 0.00 1019.0
20260505001916 0 72 0.0 0.0 0.00 0.00 0.00 1019.0
20260505000910 0 72 0.0 0.0 0.00 0.00 0.00 1019.1
20260504235910 0 73 0.0 0.0 0.00 0.00 0.00 1018.8
20260504234909 0 74 0.0 0.0 0.00 0.00 0.00 1018.9
20260504233909 0 75 0.0 0.0 0.00 0.00 0.00 1018.7
20260504232907 0 76 0.0 0.0 0.00 0.00 0.00 1018.7
20260504231907 0 76 0.0 0.0 0.00 0.00 0.00 1018.8
20260504230906 0 78 0.0 0.0 0.00 0.00 0.00 1018.4
20260504225902 0 79 0.0 0.0 0.00 0.00 0.00 1018.1
20260504224902 0 78 0.0 0.0 0.00 0.00 0.00 1018.1
20260504223901 0 78 0.0 0.0 0.00 0.00 0.00 1018.0
20260504222858 0 77 0.0 0.0 0.00 0.00 0.00 1017.9
20260504221854 0 76 0.0 0.0 0.00 0.00 0.00 1018.0
20260504220853 0 79 2.0 6.0 0.00 0.00 0.00 1017.7
20260504215853 0 80 1.0 1.0 0.00 0.00 0.00 1017.7
20260504214851 0 84 0.0 2.0 0.00 0.00 0.00 1017.4
20260504213850 0 83 0.0 1.0 0.00 0.00 0.00 1017.4
20260504212850 0 86 1.0 2.0 0.00 0.00 0.00 1017.3
20260504211849 0 88 2.0 3.0 0.00 0.00 0.00 1017.1
20260504210849 0 91 5.0 7.0 0.00 0.00 0.00 1017.4
20260504205848 0 93 3.0 5.0 0.00 0.00 0.00 1017.5
20260504204844 0 89 5.0 7.0 0.00 0.00 0.00 1017.1
20260504203842 0 81 4.0 6.0 0.00 0.00 0.00 1017.2
20260504202840 0 85 1.0 3.0 0.00 0.00 0.00 1017.1
20260504201839 0 80 0.0 1.0 0.00 0.00 0.00 1017.1
20260504200834 0 76 6.0 9.0 0.00 0.00 0.00 1017.0
20260504195833 0 71 6.0 8.0 0.00 0.00 0.00 1017.0
20260504194831 0 67 5.0 7.0 0.00 0.00 0.00 1017.1
20260504193829 0 71 8.0 11.0 0.00 0.00 0.00 1017.3
20260504192825 0 77 3.0 5.0 0.00 0.00 0.00 1017.3
20260504191821 0 92 7.0 10.0 0.00 0.00 0.00 1017.4
20260504190819 0 98 3.0 7.0 0.00 0.00 0.00 1017.4
20260504185818 0 104 5.0 7.0 0.00 0.00 0.00 1017.2
20260504184817 0 89 6.0 8.0 0.00 0.00 0.00 1017.4
20260504183815 0 67 5.0 8.0 0.00 0.00 0.00 1017.3
20260504182810 0 77 1.0 5.0 0.00 0.00 0.00 1017.7
20260504181810 0 96 6.0 7.0 0.00 0.00 0.00 1017.7
20260504180807 0 100 4.0 6.0 0.00 0.00 0.00 1017.9
20260504175802 0 94 5.0 7.0 0.00 0.00 0.00 1018.4
20260504174803 0 77 7.0 8.0 0.00 0.00 0.00 1018.2
20260504173802 0 76 1.0 2.0 0.00 0.00 0.00 1018.5
20260504172802 0 76 2.0 6.0 0.00 0.00 0.00 1018.4
20260504171800 0 81 0.0 2.0 0.00 0.00 0.00 1018.4
20260504170755 0 89 5.0 7.0 0.00 0.00 0.00 1018.3
20260504150733 0 91 4.0 8.0 0.00 0.00 0.00 1019.4
20260504140731 0 86 0.0 0.0 0.00 0.00 0.00 1019.7
20260504130719 0 89 3.0 6.0 0.00 0.00 0.00 1019.8
20260504110652 0 70 0.0 0.0 0.00 0.00 0.00 1019.9